Dayton Wright, OH

1:49 PM EDT on August 18, 2017 (GMT -0400)
Dayton-Wright Brothers

Weather History for KMGY - January, 2013

Change the Weather History Date:

Thursday, January 24, 2013

  Actual Average (KFFO) Record (KFFO)
Temperature  
Mean Temperature 16 °F -  
Max Temperature 21 °F 33 °F 51 °F (2002)
Min Temperature 12 °F 16 °F -4 °F (2000)
Degree Days  
Heating Degree Days 48    
Moisture  
Dew Point 7 °F    
Average Humidity 66    
Maximum Humidity 88    
Minimum Humidity 44    
Precipitation  
Precipitation 0.00 in - - ()
Sea Level Pressure  
Sea Level Pressure 30.39 in    
Wind  
Wind Speed 8 mph (North)    
Max Wind Speed 16 mph    
Max Gust Speed 25 mph    
Visibility 9 miles    
Events Snow    
Averages and records for this station are not official NWS values.
T = Trace of Precipitation, MM = Missing Value Source: NWS Daily Summary

Daily Weather History Graph

Daily Weather History Graph

Search for Another Location

Airport or City:

Trip Planner

Search our weather history database for the weather conditions in past years. The results will help you decide how hot, cold, wet, or windy it might be!

Date:

Astronomy

Jan. 24, 2013 Rise Set
Actual Time 7:50 AM EST 5:47 PM EST
Civil Twilight 7:21 AM EST 6:16 PM EST
Nautical Twilight 6:49 AM EST 6:49 PM EST
Astronomical Twilight 6:17 AM EST 7:21 PM EST
Moon 3:49 PM EST (1/24) 5:47 AM EST (1/24)
Length of Visible Light 10h 54m
Length of Day
9h 57m
Waxing Gibbous, 94% of the Moon is Illuminated
Jan 24
Waxing Gibbous
Jan 26
Full
Feb 3
Last Quarter
Feb 10
New
Feb 17
First Quarter

Hourly Weather History & Observations

Time (EST) Temp. Windchill Dew Point Humidity Pressure Visibility Wind Dir Wind Speed Gust Speed Precip Events Conditions
12:15 AM 17.6 °F 12.3 °F 14.0 °F 86% 30.09 in 2.0 mi WNW 3.5 mph - 0.00 in Snow Light Snow
12:27 AM 17.6 °F 10.7 °F 14.0 °F 86% 30.09 in 4.0 mi WNW 4.6 mph - 0.00 in Snow Light Snow
12:53 AM 18.0 °F 9.8 °F 15.1 °F 88% 30.15 in 3.0 mi WNW 5.8 mph - 0.00 in Snow Light Snow
1:20 AM 19.4 °F 11.5 °F 15.8 °F 86% 30.11 in 2.5 mi WNW 5.8 mph - 0.00 in Snow Light Snow
1:38 AM 19.4 °F 7.9 °F 14.0 °F 80% 30.12 in 5.0 mi WNW 10.4 mph - 0.00 in Snow Light Snow
1:53 AM 19.0 °F 6.1 °F 14.0 °F 81% 30.18 in 10.0 mi NW 12.7 mph - 0.00 in   Mostly Cloudy
2:38 AM 17.6 °F 2.7 °F 8.6 °F 68% 30.18 in 9.0 mi NW 16.1 mph 24.2 mph N/A   Scattered Clouds
2:53 AM 18.0 °F 3.6 °F 9.0 °F 68% 30.23 in 10.0 mi NW 15.0 mph 21.9 mph N/A   Scattered Clouds
3:04 AM 17.6 °F 3.2 °F 8.6 °F 68% 30.20 in 10.0 mi NW 15.0 mph 23.0 mph N/A   Mostly Cloudy
3:39 AM 17.6 °F 3.2 °F 8.6 °F 68% 30.23 in 10.0 mi NW 15.0 mph 24.2 mph 0.00 in   Scattered Clouds
3:53 AM 16.0 °F 1.7 °F 9.0 °F 74% 30.29 in 10.0 mi NNW 13.8 mph 25.3 mph 0.00 in   Clear
4:53 AM 15.1 °F -0.1 °F 5.0 °F 64% 30.34 in 10.0 mi NNW 15.0 mph 20.7 mph N/A   Clear
5:53 AM 12.9 °F -0.2 °F 1.9 °F 62% 30.37 in 10.0 mi NNW 10.4 mph - N/A   Clear
6:53 AM 12.0 °F 0.5 °F 3.0 °F 67% 30.43 in 10.0 mi NNW 8.1 mph - N/A   Clear
7:53 AM 12.0 °F 1.5 °F 3.9 °F 70% 30.47 in 10.0 mi NNW 6.9 mph - N/A   Clear
8:53 AM 12.0 °F 0.5 °F 5.0 °F 73% 30.50 in 10.0 mi NNW 8.1 mph - N/A   Clear
9:53 AM 14.0 °F 2.0 °F 5.0 °F 67% 30.55 in 10.0 mi North 9.2 mph - N/A   Clear
10:53 AM 15.1 °F 5.2 °F 6.1 °F 68% 30.59 in 10.0 mi North 6.9 mph - N/A   Clear
11:53 AM 18.0 °F 7.7 °F 7.0 °F 62% 30.60 in 10.0 mi NNE 8.1 mph - N/A   Clear
12:53 PM 19.9 °F 11.1 °F 3.9 °F 50% 30.58 in 10.0 mi Variable 6.9 mph - N/A   Clear
1:53 PM 21.0 °F 13.4 °F 3.0 °F 46% 30.56 in 10.0 mi ENE 5.8 mph - N/A   Clear
2:53 PM 21.0 °F 10.6 °F 3.0 °F 46% 30.54 in 10.0 mi NNE 9.2 mph - N/A   Clear
3:53 PM 21.9 °F 13.4 °F 3.0 °F 44% 30.54 in 10.0 mi NE 6.9 mph - N/A   Clear
4:53 PM 21.0 °F 13.4 °F 3.0 °F 46% 30.54 in 10.0 mi ENE 5.8 mph - N/A   Clear
5:53 PM 18.0 °F 11.1 °F 3.9 °F 54% 30.56 in 10.0 mi East 4.6 mph - N/A   Clear
6:53 PM 18.0 °F 12.7 °F 5.0 °F 57% 30.57 in 10.0 mi East 3.5 mph - N/A   Clear
7:53 PM 17.1 °F 10.0 °F 6.1 °F 62% 30.55 in 10.0 mi East 4.6 mph - N/A   Clear
8:53 PM 17.1 °F 10.0 °F 7.0 °F 65% 30.53 in 10.0 mi East 4.6 mph - N/A   Clear
9:53 PM 17.1 °F 8.7 °F 7.0 °F 65% 30.51 in 10.0 mi East 5.8 mph - N/A   Clear
10:53 PM 17.1 °F 7.6 °F 7.0 °F 65% 30.50 in 10.0 mi ESE 6.9 mph - N/A   Clear
11:53 PM 18.0 °F 7.7 °F 8.1 °F 65% 30.47 in 10.0 mi ESE 8.1 mph - N/A   Clear